2019-249T00:01:55.128,   1, 180,   1,   120,   4,          0,     46.128,  99216.844,    64.165,   -11.275,     0.409,   169.858, 2, 5.486E-04, -1.00,   2,  4.709E-03,  7.799E-05,  9.386E-14,  1.433E-14,  1.244E+02,  1.900E+01, 255
2019-249T00:03:55.130,   1, 180,   1,   120,   4,          0,     46.128,  99216.844,    64.156,   -11.273,     0.409,   168.649, 2, 5.486E-04, -1.00,   2,  4.663E-03,  7.664E-05,  8.641E-14,  1.480E-14,  1.157E+02,  1.981E+01, 255
2019-249T00:05:55.131,   1, 180,   1,   120,   4,          0,     46.128,  99216.844,    64.148,   -11.272,     0.409,   167.440, 2, 5.486E-04, -1.00,   2,  4.599E-03,  7.839E-05,  1.061E-13,  1.489E-14,  1.441E+02,  2.021E+01, 255
2019-249T00:07:55.132,   1, 180,   1,   120,   4,          0,     46.128,  99216.844,    64.140,   -11.270,     0.409,   166.230, 2, 5.486E-04, -1.00,   2,  4.627E-03,  7.667E-05,  2.184E-13,  1.621E-14,  2.946E+02,  2.187E+01, 255
2019-249T00:09:55.134,   1, 180,   1,   120,   4,          0,     46.128,  99216.844,    64.132,   -11.269,     0.409,   165.021, 2, 5.486E-04, -1.00,   2,  4.977E-03,  8.086E-05,  9.068E-14,  1.459E-14,  1.137E+02,  1.830E+01, 255
2019-249T00:11:55.135,   1, 180,   1,   120,   4,          0,     46.128,  99216.844,    64.124,   -11.267,     0.409,   163.811, 2, 5.486E-04, -1.00,   2,  4.703E-03,  7.750E-05,  2.156E-13,  1.508E-14,  2.861E+02,  2.002E+01, 255
2019-249T00:13:55.136,   1, 180,   1,   120,   4,          0,     46.128,  99216.844,    64.116,   -11.266,     0.409,   162.602, 2, 5.486E-04, -1.00,   2,  4.781E-03,  7.885E-05,  1.726E-13,  1.520E-14,  2.253E+02,  1.984E+01, 255
2019-249T00:15:55.138,   1, 180,   1,   120,   4,          0,     46.128,  99216.844,    64.108,   -11.265,     0.409,   161.393, 2, 5.486E-04, -1.00,   2,  4.442E-03,  7.673E-05,  5.786E-14,  1.487E-14,  8.130E+01,  2.090E+01, 255
2019-249T00:17:55.139,   1, 180,   1,   120,   4,          0,     46.128,  99216.844,    64.100,   -11.263,     0.409,   160.183, 2, 5.486E-04, -1.00,   2,  4.846E-03,  8.026E-05,  1.221E-13,  1.488E-14,  1.573E+02,  1.916E+01, 255
2019-249T00:19:55.141,   1, 180,   1,   120,   4,          0,     46.128,  99216.844,    64.092,   -11.262,     0.409,   158.974, 2, 5.486E-04, -1.00,   2,  4.456E-03,  7.607E-05,  1.571E-13,  1.489E-14,  2.201E+02,  2.085E+01, 255
2019-249T00:21:55.142,   1, 180,   1,   120,   4,          0,     46.128,  99216.844,    64.084,   -11.260,     0.409,   157.764, 2, 5.486E-04, -1.00,   2,  4.627E-03,  7.789E-05,  2.095E-13,  1.524E-14,  2.826E+02,  2.056E+01, 255
2019-249T00:23:55.144,   1, 180,   1,   120,   4,          0,     46.128,  99216.844,    64.076,   -11.259,     0.409,   156.555, 2, 5.486E-04, -1.00,   2,  4.477E-03,  7.589E-05,  1.051E-13,  1.492E-14,  1.466E+02,  2.080E+01, 255
2019-249T00:25:55.145,   1, 180,   1,   120,   4,          0,     46.128,  99216.844,    64.068,   -11.258,     0.409,   155.346, 2, 5.486E-04, -1.00,   2,  4.673E-03,  7.647E-05,  1.813E-13,  1.505E-14,  2.422E+02,  2.010E+01, 255
2019-249T00:27:55.146,   1, 180,   1,   120,   4,          0,     46.128,  99216.844,    64.060,   -11.256,     0.409,   154.136, 2, 5.486E-04, -1.00,   2,  4.560E-03,  7.647E-05,  1.396E-13,  1.485E-14,  1.910E+02,  2.033E+01, 255
2019-249T00:29:55.148,   1, 180,   1,   120,   4,          0,     46.128,  99216.844,    64.051,   -11.255,     0.409,   152.927, 2, 5.486E-04, -1.00,   2,  4.690E-03,  7.761E-05,  1.520E-13,  1.490E-14,  2.023E+02,  1.983E+01, 255
2019-249T00:31:55.149,   1, 180,   1,   120,   4,          0,     46.128,  99216.844,    64.043,   -11.253,     0.409,   151.718, 2, 5.486E-04, -1.00,   2,  4.590E-03,  7.801E-05,  1.713E-13,  1.541E-14,  2.329E+02,  2.095E+01, 255
2019-249T00:33:55.150,   1, 180,   1,   120,   4,          0,     46.128,  99216.844,    64.035,   -11.252,     0.409,   150.508, 2, 5.486E-04, -1.00,   2,  4.956E-03,  8.168E-05,  1.481E-13,  1.571E-14,  1.865E+02,  1.979E+01, 255
2019-249T00:35:55.152,   1, 180,   1,   120,   4,          0,     46.128,  99216.844,    64.027,   -11.250,     0.409,   149.299, 2, 5.486E-04, -1.00,   2,  4.933E-03,  8.052E-05,  1.357E-13,  1.463E-14,  1.717E+02,  1.851E+01, 255
2019-249T00:37:55.153,   1, 180,   1,   120,   4,          0,     46.128,  99216.844,    64.019,   -11.249,     0.409,   148.089, 2, 5.486E-04, -1.00,   2,  4.183E-03,  7.588E-05,  1.911E-13,  1.527E-14,  2.851E+02,  2.279E+01, 255
2019-249T00:39:55.155,   1, 180,   1,   120,   4,          0,     46.128,  99216.844,    64.011,   -11.248,     0.409,   146.880, 2, 5.486E-04, -1.00,   2,  4.303E-03,  7.768E-05,  1.515E-13,  1.549E-14,  2.197E+02,  2.247E+01, 255
2019-249T00:41:55.156,   1, 180,   1,   120,   4,          0,     46.128,  99216.844,    64.003,   -11.246,     0.409,   145.671, 2, 5.486E-04, -1.00,   2,  4.391E-03,  7.806E-05,  1.074E-13,  1.485E-14,  1.526E+02,  2.111E+01, 255
2019-249T00:43:55.157,   1, 180,   1,   120,   4,          0,     46.128,  99216.844,    63.995,   -11.245,     0.409,   144.461, 2, 5.486E-04, -1.00,   2,  4.568E-03,  7.763E-05,  1.543E-13,  1.497E-14,  2.108E+02,  2.045E+01, 255
2019-249T00:45:55.159,   1, 180,   1,   120,   4,          0,     46.128,  99216.844,    63.987,   -11.243,     0.409,   143.252, 2, 5.486E-04, -1.00,   2,  4.122E-03,  7.507E-05,  6.544E-14,  1.467E-14,  9.909E+01,  2.221E+01, 255
2019-249T00:47:55.160,   1, 180,   1,   120,   4,          0,     46.128,  99216.844,    63.979,   -11.242,     0.409,   142.042, 2, 5.486E-04, -1.00,   2,  4.532E-03,  7.659E-05,  1.812E-13,  1.494E-14,  2.495E+02,  2.058E+01, 255
2019-249T00:49:55.162,   1, 180,   1,   120,   4,          0,     46.128,  99216.844,    63.971,   -11.240,     0.409,   140.833, 2, 5.486E-04, -1.00,   2,  4.850E-03,  7.883E-05,  2.339E-13,  1.503E-14,  3.010E+02,  1.934E+01, 255
2019-249T00:51:55.163,   1, 180,   1,   120,   4,          0,     46.128,  99216.844,    63.962,   -11.239,     0.409,   139.624, 2, 5.486E-04, -1.00,   2,  4.821E-03,  7.885E-05,  1.757E-13,  1.509E-14,  2.275E+02,  1.953E+01, 255
2019-249T00:53:55.164,   1, 180,   1,   120,   4,          0,     46.128,  99216.844,    63.954,   -11.238,     0.409,   138.414, 2, 5.486E-04, -1.00,   2,  4.393E-03,  7.480E-05,  1.498E-13,  1.503E-14,  2.128E+02,  2.135E+01, 255
2019-249T00:55:55.166,   1, 180,   1,   120,   4,          0,     46.128,  99216.844,    63.946,   -11.236,     0.409,   137.205, 2, 5.486E-04, -1.00,   2,  4.098E-03,  7.298E-05,  1.220E-13,  1.476E-14,  1.858E+02,  2.248E+01, 255
2019-249T00:59:55.169,   1, 180,   1,   120,   4,          0,     46.128,  99216.844,    63.930,   -11.233,     0.409,   134.786, 2, 5.486E-04, -1.00,   2,  3.798E-03,  6.916E-05,  1.242E-13,  1.465E-14,  2.041E+02,  2.407E+01, 255
2019-249T01:01:55.170,   1, 180,   1,   120,   4,          0,     46.128,  99216.844,    63.922,   -11.232,     0.409,   133.577, 2, 5.486E-04, -1.00,   2,  3.859E-03,  7.144E-05,  6.138E-14,  1.434E-14,  9.928E+01,  2.319E+01, 255
2019-249T01:03:55.171,   1, 180,   1,   120,   4,          0,     46.128,  99216.844,    63.914,   -11.230,     0.409,   132.367, 2, 5.486E-04, -1.00,   2,  4.017E-03,  7.346E-05,  2.649E-13,  1.630E-14,  4.115E+02,  2.533E+01, 255
2019-249T01:05:55.173,   1, 180,   1,   120,   4,          0,     46.128,  99216.844,    63.906,   -11.229,     0.409,   131.158, 2, 5.486E-04, -1.00,   2,  3.733E-03,  7.237E-05,  2.175E-14,  1.488E-14,  3.636E+01,  2.488E+01, 255
2019-249T01:07:55.174,   1, 180,   1,   120,   4,          0,     46.128,  99216.844,    63.898,   -11.228,     0.409,   129.949, 2, 5.486E-04, -1.00,   2,  4.211E-03,  7.504E-05,  1.111E-13,  1.459E-14,  1.646E+02,  2.162E+01, 255
2019-249T01:09:55.175,   1, 180,   1,   120,   4,          0,     46.128,  99216.844,    63.889,   -11.226,     0.409,   128.739, 2, 5.486E-04, -1.00,   2,  4.752E-03,  7.817E-05,  1.757E-13,  1.511E-14,  2.308E+02,  1.985E+01, 255
2019-249T01:11:55.177,   1, 180,   1,   120,   4,          0,     46.128,  99216.844,    63.881,   -11.225,     0.409,   127.530, 2, 5.486E-04, -1.00,   2,  5.310E-03,  8.019E-05,  2.056E-13,  1.493E-14,  2.417E+02,  1.755E+01, 255
2019-249T01:13:55.178,   1, 180,   1,   120,   4,          0,     46.128,  99216.844,    63.873,   -11.223,     0.409,   126.320, 2, 5.486E-04, -1.00,   2,  5.112E-03,  7.993E-05,  1.941E-13,  1.552E-14,  2.370E+02,  1.895E+01, 255
2019-249T01:15:55.180,   1, 180,   1,   120,   4,          0,     46.128,  99216.844,    63.865,   -11.222,     0.409,   125.111, 2, 5.486E-04, -1.00,   2,  5.071E-03,  8.053E-05,  1.325E-13,  1.524E-14,  1.632E+02,  1.876E+01, 255
2019-249T01:17:55.181,   1, 180,   1,   120,   4,          0,     46.128,  99216.844,    63.857,   -11.220,     0.409,   123.902, 2, 5.486E-04, -1.00,   2,  4.781E-03,  7.875E-05,  1.741E-13,  1.527E-14,  2.273E+02,  1.994E+01, 255
2019-249T01:19:55.182,   1, 180,   1,   120,   4,          0,     46.128,  99216.844,    63.849,   -11.219,     0.409,   122.692, 2, 5.486E-04, -1.00,   2,  4.989E-03,  7.899E-05,  2.053E-13,  1.507E-14,  2.569E+02,  1.885E+01, 255
2019-249T01:21:55.184,   1, 180,   1,   120,   4,          0,     46.128,  99216.844,    63.841,   -11.217,     0.409,   121.483, 2, 5.486E-04, -1.00,   2,  5.020E-03,  7.949E-05,  2.862E-13,  1.576E-14,  3.558E+02,  1.960E+01, 255
2019-249T01:23:55.185,   1, 180,   1,   120,   4,          0,     46.128,  99216.844,    63.833,   -11.216,     0.408,   120.274, 2, 5.486E-04, -1.00,   2,  5.025E-03,  8.059E-05,  8.189E-14,  1.443E-14,  1.017E+02,  1.792E+01, 255
2019-249T01:25:55.187,   1, 180,   1,   120,   4,          0,     46.128,  99216.844,    63.825,   -11.215,     0.408,   119.064, 2, 5.486E-04, -1.00,   2,  5.151E-03,  8.115E-05,  1.426E-13,  1.473E-14,  1.728E+02,  1.785E+01, 255
2019-249T01:27:55.188,   1, 180,   1,   120,   4,          0,     46.128,  99216.844,    63.816,   -11.213,     0.408,   117.855, 2, 5.486E-04, -1.00,   2,  4.915E-03,  7.751E-05,  1.795E-13,  1.466E-14,  2.280E+02,  1.862E+01, 255
2019-249T01:29:55.189,   1, 180,   1,   120,   4,          0,     46.128,  99216.844,    63.808,   -11.212,     0.408,   116.645, 2, 5.486E-04, -1.00,   2,  4.941E-03,  7.974E-05,  1.097E-13,  1.471E-14,  1.386E+02,  1.858E+01, 255
2019-249T01:31:55.191,   1, 180,   1,   120,   4,          0,     46.128,  99216.844,    63.800,   -11.210,     0.408,   115.436, 2, 5.486E-04, -1.00,   2,  4.885E-03,  8.015E-05,  1.044E-13,  1.435E-14,  1.334E+02,  1.834E+01, 255
2019-249T01:33:55.192,   1, 180,   1,   120,   4,          0,     46.128,  99216.844,    63.792,   -11.209,     0.408,   114.227, 2, 5.486E-04, -1.00,   2,  4.645E-03,  7.937E-05,  4.669E-14,  1.442E-14,  6.274E+01,  1.938E+01, 255
2019-249T01:35:55.193,   1, 180,   1,   120,   4,          0,     46.128,  99216.844,    63.784,   -11.207,     0.408,   113.017, 2, 5.486E-04, -1.00,   2,  4.400E-03,  7.655E-05,  1.513E-13,  1.538E-14,  2.146E+02,  2.182E+01, 255
2019-249T01:37:55.195,   1, 180,   1,   120,   4,          0,     46.128,  99216.844,    63.776,   -11.206,     0.408,   111.808, 2, 5.486E-04, -1.00,   2,  4.233E-03,  7.512E-05,  6.674E-14,  1.411E-14,  9.840E+01,  2.080E+01, 255
2019-249T01:39:55.196,   1, 180,   1,   120,   4,          0,     46.128,  99216.844,    63.768,   -11.205,     0.408,   110.598, 2, 5.486E-04, -1.00,   2,  4.428E-03,  7.709E-05,  1.769E-13,  1.555E-14,  2.493E+02,  2.192E+01, 255
2019-249T01:41:55.198,   1, 180,   1,   120,   4,          0,     46.128,  99216.844,    63.760,   -11.203,     0.408,   109.389, 2, 5.486E-04, -1.00,   2,  4.216E-03,  7.531E-05,  1.796E-13,  1.491E-14,  2.658E+02,  2.207E+01, 255
2019-249T01:43:55.199,   1, 180,   1,   120,   4,          0,     46.128,  99216.844,    63.751,   -11.202,     0.408,   108.180, 2, 5.486E-04, -1.00,   2,  4.327E-03,  7.724E-05,  1.352E-13,  1.498E-14,  1.950E+02,  2.161E+01, 255
2019-249T01:45:55.200,   1, 180,   1,   120,   4,          0,     46.128,  99216.844,    63.743,   -11.200,     0.408,   106.970, 2, 5.486E-04, -1.00,   2,  4.413E-03,  7.915E-05,  1.239E-13,  1.520E-14,  1.752E+02,  2.150E+01, 255
2019-249T01:47:55.202,   1, 180,   1,   120,   4,          0,     46.128,  99216.844,    63.735,   -11.199,     0.408,   105.761, 2, 5.486E-04, -1.00,   2,  4.092E-03,  7.651E-05,  7.080E-14,  1.485E-14,  1.080E+02,  2.265E+01, 255
2019-249T01:49:55.203,   1, 180,   1,   120,   4,          0,     46.128,  99216.844,    63.727,   -11.197,     0.408,   104.552, 2, 5.486E-04, -1.00,   2,  4.184E-03,  7.587E-05,  1.613E-13,  1.519E-14,  2.406E+02,  2.266E+01, 255
2019-249T01:51:55.205,   1, 180,   1,   120,   4,          0,     46.128,  99216.844,    63.719,   -11.196,     0.408,   103.342, 2, 5.486E-04, -1.00,   2,  4.482E-03,  7.667E-05,  1.524E-13,  1.537E-14,  2.123E+02,  2.141E+01, 255
2019-249T01:53:55.206,   1, 180,   1,   120,   4,          0,     46.128,  99216.844,    63.711,   -11.194,     0.408,   102.133, 2, 5.486E-04, -1.00,   2,  4.811E-03,  7.971E-05,  1.078E-13,  1.486E-14,  1.398E+02,  1.928E+01, 255
2019-249T01:55:55.207,   1, 180,   1,   120,   4,          0,     46.128,  99216.844,    63.703,   -11.193,     0.408,   100.923, 2, 5.486E-04, -1.00,   2,  4.979E-03,  7.924E-05,  1.330E-13,  1.448E-14,  1.668E+02,  1.816E+01, 255
2019-249T01:57:55.209,   1, 180,   1,   120,   4,          0,     46.128,  99216.844,    63.694,   -11.192,     0.408,    99.714, 2, 5.486E-04, -1.00,   2,  4.809E-03,  7.981E-05,  2.639E-14,  1.439E-14,  3.426E+01,  1.868E+01, 255
2019-249T01:59:55.210,   1, 180,   1,   120,   4,          0,     46.128,  99216.844,    63.686,   -11.190,     0.408,    98.505, 2, 5.486E-04, -1.00,   2,  4.861E-03,  8.001E-05,  3.796E-14,  1.429E-14,  4.874E+01,  1.835E+01, 255
2019-249T02:01:55.212,   1, 180,   1,   120,   4,          0,     46.128,  99216.844,    63.678,   -11.189,     0.408,    97.295, 2, 5.486E-04, -1.00,   2,  4.929E-03,  8.026E-05,  8.165E-14,  1.458E-14,  1.034E+02,  1.846E+01, 255
2019-249T02:03:55.213,   1, 180,   1,   120,   4,          0,     46.128,  99216.844,    63.670,   -11.187,     0.408,    96.086, 2, 5.486E-04, -1.00,   2,  4.852E-03,  7.942E-05,  9.383E-14,  1.499E-14,  1.207E+02,  1.929E+01, 255
2019-249T02:05:55.214,   1, 180,   1,   120,   4,          0,     46.128,  99216.844,    63.662,   -11.186,     0.408,    94.876, 2, 5.486E-04, -1.00,   2,  5.010E-03,  8.009E-05,  1.515E-13,  1.474E-14,  1.888E+02,  1.837E+01, 255
2019-249T02:07:55.216,   1, 180,   1,   120,   4,          0,     46.128,  99216.844,    63.654,   -11.184,     0.408,    93.667, 2, 5.486E-04, -1.00,   2,  4.907E-03,  7.862E-05,  2.711E-13,  1.522E-14,  3.447E+02,  1.935E+01, 255
2019-249T02:09:55.217,   1, 180,   1,   120,   4,          0,     46.128,  99216.844,    63.646,   -11.183,     0.408,    92.458, 2, 5.486E-04, -1.00,   2,  4.786E-03,  8.060E-05,  7.602E-14,  1.446E-14,  9.914E+01,  1.886E+01, 255
2019-249T02:11:55.219,   1, 180,   1,   120,   4,          0,     46.128,  99216.844,    63.637,   -11.181,     0.408,    91.248, 2, 5.486E-04, -1.00,   2,  4.566E-03,  7.955E-05,  9.134E-14,  1.499E-14,  1.249E+02,  2.049E+01, 255
2019-249T02:15:55.221,   1, 180,   1,   120,   4,          0,     46.128,  99216.844,    63.621,   -11.179,     0.408,    88.829, 2, 5.486E-04, -1.00,   2,  4.732E-03,  7.866E-05,  1.663E-13,  1.471E-14,  2.194E+02,  1.940E+01, 255
2019-249T02:17:55.223,   1, 180,   1,   120,   4,          0,     46.128,  99216.844,    63.613,   -11.177,     0.408,    87.620, 2, 5.486E-04, -1.00,   2,  4.572E-03,  7.723E-05,  1.719E-13,  1.477E-14,  2.346E+02,  2.016E+01, 255
2019-249T02:19:55.224,   1, 180,   1,   120,   4,          0,     46.128,  99216.844,    63.605,   -11.176,     0.408,    86.411, 2, 5.486E-04, -1.00,   2,  4.880E-03,  8.152E-05,  2.027E-13,  1.518E-14,  2.592E+02,  1.941E+01, 255
2019-249T02:21:55.225,   1, 180,   1,   120,   4,          0,     46.128,  99216.844,    63.597,   -11.174,     0.408,    85.201, 2, 5.486E-04, -1.00,   2,  4.609E-03,  7.903E-05,  8.192E-14,  1.420E-14,  1.109E+02,  1.923E+01, 255
2019-249T02:23:55.227,   1, 180,   1,   120,   4,          0,     46.128,  99216.844,    63.588,   -11.173,     0.408,    83.992, 2, 5.486E-04, -1.00,   2,  4.631E-03,  7.985E-05,  4.475E-14,  1.448E-14,  6.031E+01,  1.951E+01, 255
2019-249T02:25:55.228,   1, 180,   1,   120,   4,          0,     46.128,  99216.844,    63.580,   -11.171,     0.407,    82.783, 2, 5.486E-04, -1.00,   2,  4.558E-03,  7.816E-05,  1.173E-13,  1.460E-14,  1.607E+02,  1.999E+01, 255
2019-249T02:27:55.230,   1, 180,   1,   120,   4,          0,     46.128,  99216.844,    63.572,   -11.170,     0.407,    81.573, 2, 5.486E-04, -1.00,   2,  4.795E-03,  8.008E-05,  7.913E-14,  1.417E-14,  1.030E+02,  1.844E+01, 255
2019-249T02:29:55.231,   1, 180,   1,   120,   4,          0,     46.128,  99216.844,    63.564,   -11.168,     0.407,    80.364, 2, 5.486E-04, -1.00,   2,  4.696E-03,  8.030E-05,  2.041E-13,  1.497E-14,  2.713E+02,  1.989E+01, 255
2019-249T02:31:55.232,   1, 180,   1,   120,   4,          0,     46.128,  99216.844,    63.556,   -11.167,     0.407,    79.154, 2, 5.486E-04, -1.00,   2,  4.505E-03,  7.723E-05,  1.556E-13,  1.505E-14,  2.155E+02,  2.085E+01, 255
2019-249T02:33:55.234,   1, 180,   1,   120,   4,          0,     46.128,  99216.844,    63.548,   -11.166,     0.407,    77.945, 2, 5.486E-04, -1.00,   2,  5.678E-03,  8.184E-05,  1.994E-13,  1.486E-14,  2.192E+02,  1.633E+01, 255
2019-249T02:35:55.235,   1, 180,   1,   120,   4,          0,     46.128,  99216.844,    63.540,   -11.164,     0.407,    76.736, 2, 5.486E-04, -1.00,   2,  5.268E-03,  7.917E-05,  1.889E-13,  1.538E-14,  2.238E+02,  1.822E+01, 255
2019-249T02:37:55.237,   1, 180,   1,   120,   4,          0,     46.128,  99216.844,    63.531,   -11.163,     0.407,    75.526, 2, 5.486E-04, -1.00,   2,  4.611E-03,  7.629E-05,  1.018E-13,  1.461E-14,  1.378E+02,  1.977E+01, 255
2019-249T02:39:55.238,   1, 180,   1,   120,   4,          0,     46.128,  99216.844,    63.523,   -11.161,     0.407,    74.317, 2, 5.486E-04, -1.00,   2,  4.206E-03,  7.545E-05,  1.973E-13,  1.530E-14,  2.927E+02,  2.271E+01, 255
2019-249T02:41:55.239,   1, 180,   1,   120,   4,          0,     46.128,  99216.844,    63.515,   -11.160,     0.407,    73.107, 2, 5.486E-04, -1.00,   2,  4.119E-03,  7.544E-05,  1.306E-13,  1.525E-14,  1.980E+02,  2.311E+01, 255
2019-249T02:43:55.241,   1, 180,   1,   120,   4,          0,     46.128,  99216.844,    63.507,   -11.158,     0.407,    71.898, 2, 5.486E-04, -1.00,   2,  4.749E-03,  7.871E-05,  3.837E-14,  1.453E-14,  5.043E+01,  1.910E+01, 255
2019-249T02:47:55.244,   1, 180,   1,   120,   4,          0,     46.128,  99216.844,    63.491,   -11.155,     0.407,    69.479, 2, 5.486E-04, -1.00,   2,  3.478E-03,  7.279E-05,  2.389E-14,  1.444E-14,  4.288E+01,  2.591E+01, 255
2019-249T02:49:55.245,   1, 180,   1,   120,   4,          0,     46.128,  99216.844,    63.482,   -11.154,     0.407,    68.270, 2, 5.486E-04, -1.00,   2,  4.013E-03,  7.518E-05,  1.834E-13,  1.521E-14,  2.853E+02,  2.366E+01, 255
2019-249T02:51:55.246,   1, 180,   1,   120,   4,          0,     46.128,  99216.844,    63.474,   -11.153,     0.407,    67.061, 2, 5.486E-04, -1.00,   2,  3.845E-03,  7.579E-05,  7.702E-14,  1.513E-14,  1.250E+02,  2.456E+01, 255
2019-249T02:53:55.248,   1, 180,   1,   120,   4,          0,     46.128,  99216.844,    63.466,   -11.151,     0.407,    65.851, 2, 5.486E-04, -1.00,   2,  3.436E-03,  7.190E-05,  1.825E-13,  1.504E-14,  3.315E+02,  2.731E+01, 255
2019-249T02:55:55.249,   1, 180,   1,   120,   4,          0,     46.128,  99216.844,    63.458,   -11.150,     0.407,    64.642, 2, 5.486E-04, -1.00,   2,  3.545E-03,  7.385E-05,  1.410E-13,  1.548E-14,  2.482E+02,  2.725E+01, 255
2019-249T02:57:55.250,   1, 180,   1,   120,   4,          0,     46.128,  99216.844,    63.450,   -11.148,     0.407,    63.432, 2, 5.486E-04, -1.00,   2,  3.562E-03,  7.169E-05,  8.071E-14,  1.462E-14,  1.414E+02,  2.563E+01, 255
2019-249T02:59:55.252,   1, 180,   1,   120,   4,          0,     46.128,  99216.844,    63.441,   -11.147,     0.407,    62.223, 2, 5.486E-04, -1.00,   2,  5.171E-03,  8.013E-05,  2.052E-13,  1.519E-14,  2.477E+02,  1.834E+01, 255
2019-249T03:01:55.253,   1, 180,   1,   120,   4,          0,     46.128,  99216.844,    63.433,   -11.145,     0.407,    61.014, 2, 5.486E-04, -1.00,   2,  5.394E-03,  7.957E-05,  2.262E-13,  1.513E-14,  2.617E+02,  1.751E+01, 255
2019-249T03:03:55.255,   1, 180,   1,   120,   4,          0,     46.128,  99216.844,    63.425,   -11.144,     0.407,    59.804, 2, 5.486E-04, -1.00,   2,  4.937E-03,  7.570E-05,  1.728E-13,  1.468E-14,  2.184E+02,  1.856E+01, 255
2019-249T03:05:55.256,   1, 180,   1,   120,   4,          0,     46.128,  99216.844,    63.417,   -11.142,     0.407,    58.595, 2, 5.486E-04, -1.00,   2,  5.082E-03,  7.805E-05,  1.527E-13,  1.472E-14,  1.875E+02,  1.808E+01, 255
2019-249T03:07:55.257,   1, 180,   1,   120,   4,          0,     46.128,  99216.844,    63.409,   -11.141,     0.407,    57.385, 2, 5.486E-04, -1.00,   2,  5.309E-03,  7.716E-05,  1.435E-13,  1.442E-14,  1.687E+02,  1.695E+01, 255
2019-249T05:01:55.337,   1, 180,   1,   120,   4,          0,     46.128,  99216.844,    62.940,   -11.057,     0.406,   348.450, 2, 5.486E-04, -1.00,   2,  3.913E-03,  7.297E-05,  1.420E-13,  1.531E-14,  2.265E+02,  2.441E+01, 255
2019-249T05:03:55.338,   1, 180,   1,   120,   4,          0,     46.128,  99216.844,    62.932,   -11.056,     0.406,   347.241, 2, 5.486E-04, -1.00,   2,  3.809E-03,  7.362E-05,  7.760E-14,  1.411E-14,  1.271E+02,  2.312E+01, 255
2019-249T05:05:55.339,   1, 180,   1,   120,   4,          0,     46.128,  99216.844,    62.924,   -11.054,     0.406,   346.031, 2, 5.486E-04, -1.00,   2,  3.468E-03,  7.370E-05,  7.327E-14,  1.463E-14,  1.319E+02,  2.634E+01, 255
2019-249T05:07:55.341,   1, 180,   1,   120,   4,          0,     46.128,  99216.844,    62.916,   -11.053,     0.405,   344.822, 2, 5.486E-04, -1.00,   2,  3.622E-03,  7.404E-05,  3.676E-14,  1.421E-14,  6.334E+01,  2.449E+01, 255
2019-249T05:09:55.342,   1, 180,   1,   120,   4,          0,     46.128,  99216.844,    62.907,   -11.051,     0.405,   343.612, 2, 5.486E-04, -1.00,   2,  4.549E-03,  7.829E-05,  1.592E-13,  1.474E-14,  2.184E+02,  2.022E+01, 255
2019-249T05:11:55.344,   1, 180,   1,   120,   4,          0,     46.128,  99216.844,    62.899,   -11.050,     0.405,   342.403, 2, 5.486E-04, -1.00,   2,  4.271E-03,  7.600E-05,  9.242E-14,  1.440E-14,  1.351E+02,  2.105E+01, 255
2019-249T05:13:55.345,   1, 180,   1,   120,   4,          0,     46.128,  99216.844,    62.891,   -11.049,     0.405,   341.194, 2, 5.486E-04, -1.00,   2,  4.172E-03,  7.675E-05,  7.874E-14,  1.447E-14,  1.178E+02,  2.165E+01, 255
2019-249T05:15:55.346,   1, 180,   1,   120,   4,          0,     46.128,  99216.844,    62.883,   -11.047,     0.405,   339.984, 2, 5.486E-04, -1.00,   2,  3.819E-03,  7.559E-05,  9.700E-14,  1.465E-14,  1.585E+02,  2.394E+01, 255
2019-249T06:55:55.416,   1, 180,   1,   120,   4,          0,     46.128,  99216.844,    62.468,   -10.973,     0.404,   279.514, 2, 5.486E-04, -1.00,   2,  3.762E-03,  7.334E-05,  1.626E-13,  1.473E-14,  2.697E+02,  2.443E+01, 255
2019-249T06:57:55.417,   1, 180,   1,   120,   4,          0,     46.128,  99216.844,    62.460,   -10.971,     0.404,   278.305, 2, 5.486E-04, -1.00,   2,  3.779E-03,  7.356E-05,  2.680E-13,  1.583E-14,  4.426E+02,  2.615E+01, 255
2019-249T06:59:55.419,   1, 180,   1,   120,   4,          0,     46.128,  99216.844,    62.451,   -10.970,     0.404,   277.096, 2, 5.486E-04, -1.00,   2,  2.924E-03,  6.814E-05,  1.298E-13,  1.436E-14,  2.771E+02,  3.066E+01, 255
2019-249T10:19:55.557,   1, 180,   1,   120,   4,          0,     46.128,  99216.844,    61.613,   -10.818,     0.401,   156.155, 2, 5.486E-04, -1.00,   2,  4.010E-03,  7.459E-05,  1.258E-13,  1.459E-14,  1.958E+02,  2.272E+01, 255